Flag for Vietnam Weather past 2 weeks in Da Nang, Vietnam

Now
75 °F

Passing clouds.


Feels Like: 75 °F
Forecast: 77 / 85 °F
Wind: No wind

Location: Da Nang Airport

Current Time: Oct 21, 2014 at 4:54:00 AM

Latest Report: Oct 21, 2014 at 4:00 AM


Visibility: N/A

Pressure: 29.92 "Hg

Humidity: 89%

Dew point: 72 °F

Location of Da NangLocation

Historic Weather in Da Nang — Graph

°F

Da Nang temperature yesterday

Maximum temperature yesterday: 86 °F (at 9:30 AM)
Minimum temperature yesterday: 75 °F (at 2:00 AM)
Average temperature yesterday: 80 °F

Past Weeks' High & Low Weather Summary

 TemperatureHumidityPressure
High88 °F (Oct 6, 11:30 AM)100% (Oct 6, 3:00 AM)30.07 "Hg (Oct 6, 3:00 AM)
Low70 °F (Oct 6, 4:30 AM)52% (Oct 9, 11:00 AM)29.77 "Hg (Oct 10, 3:00 PM)
Average79 °F80%29.92 "Hg
* Reported Oct 6 3:00 AM — Oct 21 3:30 AM, Da Nang, Weather by CustomWeather, © 2014

Note: Actual official high and low records may vary slightly from our data, if they occured in-between our weather recording intervals... More about our weather records

Advertising

Da Nang weather history for previous 24 hours

 ConditionsComfort  
Time TempWeatherWind HumidityBarometerVisibility
3:30 AM
Oct 21
75 °FPassing clouds.No wind89%29.92 "HgN/A
3:00 AM75 °FPassing clouds.1 mph89%29.92 "HgN/A
2:30 AM75 °FPassing clouds.No wind89%29.92 "HgN/A
2:00 AM75 °FPassing clouds.No wind94%29.92 "HgN/A
1:30 AM77 °FPassing clouds.2 mph89%29.92 "HgN/A
1:00 AM77 °FPassing clouds.2 mph89%29.95 "HgN/A
12:30 AM77 °FPassing clouds.1 mph89%29.95 "HgN/A
12:00 AM77 °FPassing clouds.1 mph89%29.95 "HgN/A
11:30 PM
Oct 20
77 °FPassing clouds.1 mph89%29.95 "HgN/A
11:00 PM79 °FPassing clouds.1 mph84%29.95 "HgN/A
10:30 PM79 °FPassing clouds.2 mph84%29.95 "HgN/A
10:00 PM79 °FPassing clouds.1 mph89%29.95 "HgN/A
9:30 PM79 °FPassing clouds.1 mph89%29.95 "HgN/A
9:00 PM81 °FPassing clouds.1 mph84%29.95 "HgN/A
8:30 PM81 °FPassing clouds.1 mph84%29.95 "HgN/A
8:00 PM81 °FPassing clouds.2 mph84%29.95 "HgN/A
7:30 PM81 °FPassing clouds.5 mph84%29.92 "HgN/A
7:00 PM81 °FPassing clouds.3 mph84%29.92 "HgN/A
6:30 PM81 °FPassing clouds.3 mph79%29.92 "HgN/A
6:00 PM82 °FPassing clouds.3 mph79%29.89 "HgN/A
5:30 PM82 °FPassing clouds.6 mph79%29.89 "HgN/A
5:00 PM82 °FScattered clouds.7 mph79%29.86 "HgN/A
4:30 PM84 °FScattered clouds.10 mph74%29.86 "HgN/A
4:00 PM84 °FScattered clouds.12 mph74%29.86 "HgN/A
3:30 PM84 °FScattered clouds.13 mph79%29.86 "HgN/A
3:00 PM86 °FScattered clouds.9 mph70%29.86 "HgN/A
2:30 PM84 °FScattered clouds.12 mph74%29.86 "HgN/A
2:00 PM86 °FScattered clouds.12 mph70%29.86 "HgN/A
1:30 PM86 °FScattered clouds.13 mph70%29.86 "HgN/A
1:00 PM86 °FScattered clouds.12 mph70%29.89 "HgN/A
12:00 PM86 °FScattered clouds.10 mph70%29.89 "HgN/A
10:00 AM86 °FScattered clouds.3 mph70%29.95 "HgN/A
9:30 AM86 °FScattered clouds.1 mph70%29.95 "HgN/A
9:00 AM84 °FPartly sunny.5 mph74%29.95 "HgN/A
8:30 AM84 °FPartly sunny.3 mph74%29.95 "HgN/A
8:00 AM81 °FPartly sunny.2 mph84%29.95 "HgN/A
7:30 AM81 °FScattered clouds.2 mph84%29.95 "HgN/A
7:00 AM77 °FScattered clouds.1 mph94%29.95 "HgN/A
6:30 AM75 °FFog.2 mph94%29.95 "Hg3 mi
6:00 AM75 °FFog.2 mph94%29.92 "Hg3 mi
5:30 AM75 °FLight rain. Fog.3 mph94%29.92 "Hg2 mi
5:00 AM75 °FPassing clouds.2 mph94%29.92 "Hg4 mi
4:30 AM75 °FPassing clouds.2 mph94%29.89 "Hg4 mi
4:00 AM75 °FPassing clouds.No wind94%29.89 "Hg4 mi
Weather by CustomWeather, © 2014

See weather overviewHow to use our weather pages